Location: Castelbiague
(43.0361°N, 0.9246°E)
Time: 08:28:04
(UTC+00:00)

USA 215 - Pass Details

Date: 25 October 2021
Orbit: 1099 x 1109 km, 123.0° (Epoch: 20 November)

Event Time Altitude Azimuth Distance (km) Brightness Sun altitude
Exits shadow 21:58:51 13° 320° (NW) 2,759 5.8 -52.3°
Drops below altitude 10° 21:59:29 10° 317° (NW) 2,964 6.0 -52.4°
Sets 22:02:16 0° 308° (NW) 3,924 6.7 -52.8°
